Jefferson, NC

5:52 AM EST on December 13, 2019 (GMT -0500)
Ashe County

Weather History for KGEV - October, 2019

Change the Weather History Date:

Friday, October 18, 2019

  Actual Average Record
Temperature  
Mean Temperature 48 °F -  
Max Temperature 59 °F 64 °F 79 °F (1991)
Min Temperature 38 °F 38 °F 21 °F (1970)
Degree Days  
Heating Degree Days 16    
Moisture  
Dew Point 35 °F    
Average Humidity 63    
Maximum Humidity 88    
Minimum Humidity 39    
Precipitation  
Precipitation 0.00 in - - ()
Sea Level Pressure  
Sea Level Pressure 30.02 in    
Wind  
Wind Speed 5 mph ()    
Max Wind Speed 17 mph    
Max Gust Speed 24 mph    
Visibility 10.0 miles    
Events      
Averages and records for this station are not official NWS values.
T = Trace of Precipitation, MM = Missing Value Source: Averaged Metar Reports

Daily Weather History Graph

Daily Weather History Graph

Search for Another Location

Airport or City:

Astronomy

Oct. 18, 2019 Rise Set
Actual Time 7:35 AM EDT 6:45 PM EDT
Civil Twilight 7:09 AM EDT 7:11 PM EDT
Nautical Twilight 6:39 AM EDT 7:41 PM EDT
Astronomical Twilight 6:09 AM EDT 8:11 PM EDT
Moon 10:07 PM EDT (10/18) 12:00 PM EDT (10/18)
Length of Visible Light 12h 02m
Length of Day
11h 10m
Waning Gibbous, 79% of the Moon is Illuminated
Oct 18
Waning Gibbous
Oct 21
Last Quarter
Oct 27
New
Nov 4
First Quarter
Nov 12
Full

Hourly Weather History & Observations

Time (EDT) Temp. Windchill Dew Point Humidity Pressure Visibility Wind Dir Wind Speed Gust Speed Precip Events Conditions
12:15 AM 41.5 °F 35.9 °F 32.0 °F 69% 29.96 in 10.0 mi NW 9.2 mph 21.9 mph N/A   Clear
12:35 AM 41.0 °F 35.2 °F 32.0 °F 70% 29.96 in 10.0 mi NW 9.2 mph - N/A   Clear
12:55 AM 40.6 °F 35.4 °F 32.0 °F 71% 29.96 in 10.0 mi NW 8.1 mph - N/A   Clear
1:15 AM 41.0 °F 34.7 °F 32.0 °F 70% 29.95 in 10.0 mi NW 10.4 mph 24.2 mph N/A   Clear
1:35 AM 40.8 °F 35.0 °F 32.2 °F 71% 29.96 in 10.0 mi NNW 9.2 mph 17.3 mph N/A   Clear
1:55 AM 40.5 °F 34.1 °F 32.2 °F 72% 29.96 in 10.0 mi NW 10.4 mph - N/A   Clear
2:15 AM 40.5 °F 34.1 °F 32.0 °F 72% 29.96 in 10.0 mi WNW 10.4 mph 16.1 mph N/A   Clear
2:35 AM 40.5 °F 34.6 °F 32.0 °F 72% 29.96 in 10.0 mi NW 9.2 mph - N/A   Clear
2:55 AM 40.3 °F 35.5 °F 32.2 °F 73% 29.97 in 10.0 mi NW 6.9 mph - N/A   Clear
3:15 AM 40.3 °F 34.4 °F 32.2 °F 73% 29.97 in 10.0 mi WNW 9.2 mph - N/A   Clear
3:35 AM 40.5 °F 36.5 °F 32.0 °F 72% 29.98 in 10.0 mi West 5.8 mph - N/A   Clear
3:55 AM 39.4 °F 34.5 °F 32.0 °F 75% 29.98 in 10.0 mi WNW 6.9 mph - N/A   Clear
4:15 AM 39.7 °F 34.9 °F 32.0 °F 74% 29.97 in 10.0 mi West 6.9 mph - N/A   Clear
4:35 AM 39.9 °F 35.8 °F 32.0 °F 73% 29.97 in 10.0 mi WNW 5.8 mph - N/A   Clear
4:55 AM 40.1 °F 34.7 °F 32.0 °F 73% 29.98 in 10.0 mi West 8.1 mph 16.1 mph N/A   Clear
5:15 AM 40.1 °F 34.7 °F 32.0 °F 73% 29.99 in 10.0 mi West 8.1 mph - N/A   Clear
5:35 AM 39.2 °F - 32.0 °F 75% 29.99 in 10.0 mi Calm Calm - N/A   Clear
5:55 AM 39.0 °F 34.0 °F 32.2 °F 76% 30.00 in 10.0 mi NW 6.9 mph - N/A   Clear
6:15 AM 38.7 °F 32.9 °F 32.2 °F 78% 29.99 in 10.0 mi WNW 8.1 mph - N/A   Clear
6:35 AM 39.2 °F 35.0 °F 32.2 °F 76% 30.00 in 10.0 mi WNW 5.8 mph - N/A   Clear
6:55 AM 39.0 °F 34.0 °F 32.0 °F 76% 30.00 in 10.0 mi WNW 6.9 mph - N/A   Clear
7:15 AM 39.2 °F 32.0 °F 32.0 °F 75% 30.00 in 10.0 mi WNW 11.5 mph 18.4 mph N/A   Clear
7:35 AM 39.6 °F 35.4 °F 32.0 °F 74% 30.00 in 10.0 mi WNW 5.8 mph - N/A   Clear
7:55 AM 39.2 °F - 32.0 °F 75% 30.00 in 10.0 mi Calm Calm - N/A   Clear
8:15 AM 39.6 °F - 32.5 °F 76% 30.02 in 10.0 mi Calm Calm - N/A   Clear
8:35 AM 40.3 °F - 33.1 °F 75% 30.03 in 10.0 mi Calm Calm - N/A   Clear
8:55 AM 39.9 °F - 33.1 °F 77% 30.04 in 10.0 mi Calm Calm - N/A   Clear
9:15 AM 41.4 °F - 33.4 °F 73% 30.04 in 10.0 mi Calm Calm - N/A   Clear
9:35 AM 43.3 °F 37.7 °F 33.1 °F 67% 30.04 in 10.0 mi NW 10.4 mph - N/A   Clear
9:55 AM 43.9 °F 36.2 °F 32.2 °F 63% 30.02 in 10.0 mi NNW 17.3 mph 23.0 mph N/A   Clear
10:35 AM 46.4 °F 41.1 °F 32.9 °F 59% 30.03 in 10.0 mi NW 11.5 mph 17.3 mph N/A   Clear
10:55 AM 47.8 °F - 32.0 °F 54% 30.04 in 10.0 mi NW 6.9 mph 17.3 mph N/A   Clear
11:15 AM 49.8 °F - 32.2 °F 51% 30.04 in 10.0 mi WNW 5.8 mph - N/A   Clear
11:35 AM 52.0 °F - 32.4 °F 47% 30.04 in 10.0 mi North 5.8 mph - N/A   Clear
11:55 AM 52.2 °F - 31.5 °F 45% 30.04 in 10.0 mi Calm Calm - N/A   Clear
12:15 PM 53.4 °F - 34.0 °F 48% 30.04 in 10.0 mi NE 6.9 mph - N/A   Clear
12:35 PM 55.2 °F - 34.0 °F 45% 30.05 in 10.0 mi North 3.5 mph - N/A   Clear
12:55 PM 54.9 °F - 33.1 °F 44% 30.06 in 10.0 mi ENE 5.8 mph - N/A   Clear
1:15 PM 54.9 °F - 32.7 °F 43% 30.05 in 10.0 mi Calm Calm - N/A   Clear
1:35 PM 55.4 °F - 31.8 °F 41% 30.05 in 10.0 mi Calm Calm - N/A   Clear
1:55 PM 57.0 °F - 32.9 °F 40% 30.03 in 10.0 mi Calm Calm - N/A   Clear
2:15 PM 58.5 °F - 34.5 °F 41% 30.02 in 10.0 mi ENE 4.6 mph - N/A   Clear
2:35 PM 58.3 °F - 34.2 °F 40% 30.02 in 10.0 mi ENE 5.8 mph - N/A   Clear
2:55 PM 58.6 °F - 33.8 °F 39% 30.02 in 10.0 mi ESE 5.8 mph - N/A   Clear
3:15 PM 58.3 °F - 33.1 °F 39% 30.02 in 10.0 mi East 3.5 mph - N/A   Clear
3:35 PM 59.2 °F - 34.2 °F 39% 30.02 in 10.0 mi ENE 5.8 mph - N/A   Clear
3:55 PM 59.0 °F - 33.8 °F 39% 30.02 in 10.0 mi Calm Calm - N/A   Clear
4:15 PM 59.2 °F - 34.3 °F 39% 30.02 in 10.0 mi ESE 4.6 mph - N/A   Clear
4:35 PM 59.0 °F - 34.0 °F 39% 30.02 in 10.0 mi ENE 6.9 mph - N/A   Clear
4:55 PM 59.0 °F - 34.2 °F 39% 30.03 in 10.0 mi Calm Calm - N/A   Clear
5:15 PM 58.8 °F - 34.3 °F 40% 30.02 in 10.0 mi Calm Calm - N/A   Clear
5:35 PM 58.1 °F - 35.1 °F 42% 30.02 in 10.0 mi ENE 3.5 mph - N/A   Clear
5:55 PM 55.4 °F - 39.7 °F 56% 30.03 in 10.0 mi Calm Calm - N/A   Clear
6:15 PM 54.1 °F - 39.7 °F 58% 30.04 in 10.0 mi SE 3.5 mph - N/A   Clear
6:35 PM 52.7 °F - 40.1 °F 62% 30.04 in 10.0 mi Calm Calm - N/A   Clear
6:55 PM 51.6 °F - 39.6 °F 63% 30.04 in 10.0 mi SSE 3.5 mph - N/A   Clear
7:15 PM 50.9 °F - 39.9 °F 66% 30.04 in 10.0 mi SSE 3.5 mph - N/A   Clear
7:35 PM 50.2 °F - 39.7 °F 67% 30.05 in 10.0 mi Calm Calm - N/A   Clear
7:55 PM 50.0 °F - 38.8 °F 66% 30.04 in 10.0 mi Calm Calm - N/A   Clear
8:15 PM 49.5 °F - 39.2 °F 68% 30.04 in 10.0 mi Calm Calm - N/A   Clear
8:35 PM 48.4 °F - 39.6 °F 72% 30.05 in 10.0 mi Calm Calm - N/A   Clear
8:55 PM 48.6 °F - 39.4 °F 71% 30.06 in 10.0 mi Calm Calm - N/A   Clear
9:15 PM 48.4 °F - 38.7 °F 69% 30.06 in 10.0 mi Calm Calm - N/A   Clear
9:35 PM 46.0 °F - 39.6 °F 78% 30.05 in 10.0 mi Calm Calm - N/A   Clear
9:55 PM 46.0 °F - 40.1 °F 80% 30.05 in 10.0 mi Calm Calm - N/A   Clear
10:15 PM 46.4 °F - 39.4 °F 77% 30.05 in 10.0 mi Calm Calm - N/A   Clear
10:35 PM 45.7 °F - 39.7 °F 80% 30.05 in 10.0 mi Calm Calm - N/A   Clear
10:55 PM 46.0 °F - 39.2 °F 77% 30.05 in 10.0 mi Calm Calm - N/A   Clear
11:15 PM 44.6 °F - 39.4 °F 82% 30.05 in 10.0 mi Calm Calm - N/A   Clear
11:35 PM 44.2 °F 42.7 °F 38.7 °F 81% 30.05 in 10.0 mi WSW 3.5 mph - N/A   Clear
11:55 PM 42.4 °F 40.7 °F 39.2 °F 88% 30.05 in 10.0 mi SW 3.5 mph - N/A   Clear